Location: Rounton
(54.4000°N, 1.3500°W)
Time: 21:44:00
(UTC+01:00)

YAOGAN 20A - Pass Details

Date: 29 June 2022
Orbit: 891 x 1288 km, 63.4° (Epoch: 18 August)

Event Time Altitude Azimuth Distance (km) Brightness Sun altitude
Rises 23:45:29 0° 301° (WNW) 3,726 8.8 -10.4°
Reaches altitude 10° 23:48:06 10° 307° (NW) 2,828 8.2 -10.5°
Maximum altitude 23:54:36 50° 22° (NNE) 1,388 6.1 -10.8°
Drops below altitude 10° 00:01:46 10° 96° (E) 3,105 7.3 -11.1°
Sets 00:04:45 0° 102° (ESE) 4,120 7.9 -11.2°
